Doha, Qatar

1:13 AM +03 on October 22, 2017 (GMT +0300)
Doha

Weather History for 41170 - May, 2013

Change the Weather History Date:

Saturday, May 18, 2013

  Actual Average Record
Temperature  
Mean Temperature 92 °F -  
Max Temperature 102 °F 104 °F - ()
Min Temperature 83 °F 80 °F - ()
Cooling Degree Days 28    
Growing Degree Days 42 (Base 50)    
Moisture  
Dew Point 48 °F    
Average Humidity 25    
Maximum Humidity 40    
Minimum Humidity 10    
Precipitation  
Precipitation 0.00 in 0.00 in - ()
Sea Level Pressure  
Sea Level Pressure 29.80 in    
Wind  
Wind Speed 15 mph ()    
Max Wind Speed 25 mph    
Max Gust Speed 37 mph    
Visibility 5.6 miles    
Events      
T = Trace of Precipitation, MM = Missing Value Source: Averaged Metar Reports

Daily Weather History Graph

Daily Weather History Graph

Search for Another Location

Airport or City:

Trip Planner

Search our weather history database for the weather conditions in past years. The results will help you decide how hot, cold, wet, or windy it might be!

Date:

Astronomy

May. 18, 2013 Rise Set
Actual Time 4:47 AM +03 6:12 PM +03
Civil Twilight 4:22 AM +03 6:37 PM +03
Nautical Twilight 3:52 AM +03 7:07 PM +03
Astronomical Twilight 3:22 AM +03 7:38 PM +03
Moon 11:35 AM +03 (5/18) No Moon Set
Length of Visible Light 14h 15m
Length of Day
13h 25m
First Quarter, 52% of the Moon is Illuminated
May 18
First Quarter
May 25
Full
May 31
Last Quarter
Jun 8
New
Jun 16
First Quarter

Hourly Weather History & Observations

Time (+03) Temp. Heat Index Dew Point Humidity Pressure Visibility Wind Dir Wind Speed Gust Speed Precip Events Conditions
12:00 AM 87.8 °F - 48.2 °F 25% 29.83 in - NW 11.5 mph - N/A   Clear
1:00 AM 86.0 °F - 50.0 °F 29% 29.80 in - NW 9.2 mph - N/A   Clear
2:00 AM 84.2 °F 83.0 °F 55.4 °F 37% 29.83 in - NW 11.5 mph - N/A   Clear
3:00 AM 85 °F - 53 °F 23% 29.82 in 7 mi NW 11.5 mph - -  
3:00 AM 86.0 °F 84.2 °F 53.6 °F 33% 29.80 in - NW 11.5 mph - N/A   Clear
3:30 AM 84.2 °F 83.0 °F 55.4 °F 37% 29.80 in - NNW 12.7 mph 25.3 mph N/A   Clear
4:00 AM 84.2 °F 83.0 °F 55.4 °F 37% 29.83 in - NNW 12.7 mph - N/A   Clear
4:30 AM 84.2 °F 82.8 °F 53.6 °F 35% 29.83 in - NNW 16.1 mph - N/A   Clear
5:00 AM 84.2 °F 82.8 °F 53.6 °F 35% 29.83 in - NNW 15.0 mph - N/A   Clear
5:30 AM 84.2 °F 82.8 °F 53.6 °F 35% 29.83 in - NW 16.1 mph 29.9 mph N/A   Clear
6:00 AM 84.2 °F 83.5 °F 57.2 °F 40% 29.83 in - NNW 19.6 mph - N/A   Clear
6:30 AM 86.0 °F 84.9 °F 57.2 °F 37% 29.83 in - NNW 19.6 mph - N/A   Clear
7:00 AM 86.0 °F 84.5 °F 55.4 °F 35% 29.86 in - NNW 21.9 mph - N/A   Clear
7:30 AM 87.8 °F 86.1 °F 55.4 °F 33% 29.86 in - NNW 18.4 mph - N/A   Clear
8:00 AM 89.6 °F 87.3 °F 53.6 °F 29% 29.86 in - NNW 19.6 mph - N/A   Clear
8:30 AM 91.4 °F - 50.0 °F 24% 29.86 in - NNW 23.0 mph - N/A   Clear
9:00 AM 92 °F - 45 °F 12% 29.86 in 5 mi NNW 23.0 mph - -   Widespread Dust
9:00 AM 91.4 °F - 44.6 °F 20% 29.86 in 5.0 mi NNW 23.0 mph 35.7 mph N/A   Unknown
9:30 AM 93.2 °F - 44.6 °F 19% 29.86 in 5.0 mi NNW 24.2 mph 35.7 mph N/A   Unknown
10:00 AM 93.2 °F - 44.6 °F 19% 29.83 in 5.6 mi NNW 25.3 mph 36.8 mph N/A   Unknown
10:30 AM 95.0 °F - 42.8 °F 16% 29.83 in 5.6 mi NNW 23.0 mph 36.8 mph N/A   Unknown
11:00 AM 95.0 °F - 42.8 °F 16% 29.83 in 5.6 mi NW 18.4 mph - N/A   Unknown
11:30 AM 96.8 °F - 42.8 °F 16% 29.83 in 5.0 mi NNW 19.6 mph 33.4 mph N/A   Unknown
12:00 PM 96.8 °F - 42.8 °F 16% 29.83 in 5.0 mi NNW 19.6 mph 32.2 mph N/A   Unknown
12:30 PM 95.0 °F - 41.0 °F 15% 29.80 in 5.6 mi NNW 24.2 mph - N/A   Unknown
1:00 PM 95.0 °F - 41.0 °F 15% 29.80 in - North 20.7 mph - N/A   Clear
1:30 PM 95.0 °F - 41.0 °F 15% 29.77 in - NNW 19.6 mph 33.4 mph N/A   Clear
2:00 PM 95.0 °F - 39.2 °F 14% 29.77 in - NNW 20.7 mph 33.4 mph N/A   Clear
2:30 PM 95.0 °F - 39.2 °F 14% 29.77 in - NNW 24.2 mph - N/A   Clear
3:00 PM 94 °F - 43 °F 10% 29.78 in 6 mi NNW 20.7 mph - -  
3:00 PM 95.0 °F - 42.8 °F 16% 29.77 in - NNW 20.7 mph 34.5 mph N/A   Clear
4:00 PM 93.2 °F - 41.0 °F 16% 29.74 in - NW 18.4 mph - N/A   Clear
4:30 PM 91.4 °F - 41.0 °F 17% 29.74 in - NNW 20.7 mph 32.2 mph N/A   Clear
5:00 PM 91.4 °F - 44.6 °F 20% 29.74 in - NNW 17.3 mph - N/A   Clear
5:30 PM 89.6 °F - 39.2 °F 17% 29.74 in - NNW 19.6 mph 31.1 mph N/A   Clear
6:00 PM 89.6 °F - 42.8 °F 20% 29.74 in - NNW 17.3 mph - N/A   Clear
6:30 PM 87.8 °F - 42.8 °F 21% 29.74 in - NNW 19.6 mph - N/A   Clear
7:00 PM 87.8 °F - 42.8 °F 21% 29.77 in - NW 11.5 mph - N/A   Clear
7:30 PM 86.0 °F - 44.6 °F 23% 29.77 in - NW 13.8 mph - N/A   Clear
8:00 PM 86.0 °F - 46.4 °F 25% 29.77 in - NW 11.5 mph - N/A   Clear
9:00 PM 85 °F - 52 °F 22% 29.81 in 7 mi NW 11.5 mph - -  
9:00 PM 84.2 °F - 51.8 °F 33% 29.80 in - NW 11.5 mph - N/A   Clear
10:00 PM 84.2 °F 83.5 °F 57.2 °F 40% 29.80 in - NW 11.5 mph - N/A   Clear
10:30 PM 84.2 °F 83.5 °F 57.2 °F 40% 29.77 in - NW 11.5 mph - N/A   Clear
11:00 PM 102.2 °F 101.4 °F 57.2 °F 22% 29.77 in - NW 12.7 mph - N/A   Clear
11:30 PM 84.2 °F 83.0 °F 55.4 °F 37% 29.77 in - WNW 12.7 mph - N/A   Clear